[[{"header":{"parameterUnit":"m.s-1","parameterCategory":1,"la1":30.2991,"la2":30.254,"lo1":-89.0895,"lo2":-89.0444,"dy":0.0017,"dx":0.0017,"nx":28,"ny":28,"refTime":"2025-08-31T21:00:00:Z","depth":0,"parameterNumber":2,"parameterNumberName":"U-component_of_WINDS"},"data":[0,0,0,0,0,0,0,0,0,0,0,0,0,0,0,0,0,0,0,0,0,0,0,0,0,0,0,0,0,0,0,0,0,0,0,0,0,0,0,0,0,0,0,0,0,0,0,0,0,0,0,0,0,0,0,0,0,0,-2.99,-2.99,0,-2.9899,-2.9899,-2.9899,-2.9787,-2.9784,-2.9781,-2.9778,-2.9781,-2.9783,-2.9786,0,0,0,0,0,0,0,0,0,0,0,0,0,-2.9807,-2.981,-2.99,-2.99,-2.99,-2.9899,-2.9899,-2.9899,-2.9787,-2.9784,-2.978,-2.9777,-2.978,-2.9783,-2.9786,0,0,0,0,0,0,0,0,0,0,0,0,0,-2.9832,-2.981,-2.99,-2.9844,-2.9839,-2.9899,-2.9899,-2.9899,-2.9788,-2.9784,-2.9779,-2.9775,-2.9779,-2.9783,-2.9787,-2.9902,0,0,-2.98,-2.9802,0,0,0,0,0,0,0,0,-2.983,-2.9835,-2.9852,-2.9848,-2.9842,-2.9839,-2.9867,-2.99,-2.9789,-2.9808,-2.9778,-2.9773,-2.9804,-2.9806,-2.9815,-2.9902,-2.9902,-2.98,-2.9803,-2.9804,-2.9806,0,0,0,0,0,0,0,-2.9829,-2.9834,-2.99,-2.9853,-2.9847,-2.982,-2.9818,-2.9873,-2.9831,-2.9806,-2.9797,-2.9799,-2.98,-2.9811,-2.9814,-2.9902,-2.98,-2.9804,-2.9806,-2.9808,-3.0083,-3.0088,0,0,0,0,0,0,-2.9834,-2.9834,-2.99,-2.99,-2.9825,-2.9825,-2.9824,-2.9844,-2.983,-2.9823,-2.9803,-2.9794,-2.9806,-2.981,-2.9814,-2.9948,-2.9804,-2.9808,-2.9811,-3.0079,-3.0084,-3.009,0,0,0,0,0,0,-2.9833,-2.9841,-2.99,-2.9865,-2.987,-2.9831,-2.9856,-2.9847,-2.9858,-2.9827,-2.9819,-2.9822,-2.9803,-2.9808,-2.9881,-2.9946,-2.981,-2.9814,-3.0073,-3.008,-3.0087,-3.0216,0,0,0,0,0,0,-2.9831,-2.9841,-2.9884,-2.9866,-2.9872,-2.9966,-2.986,-2.985,-2.9865,-2.9853,-2.9843,-2.9837,-2.98,-2.9875,-2.9885,-2.995,-2.9817,-3.0067,-3.0076,-3.0085,-3.0206,-3.0227,-3.0245,0,0,0,0,0,-2.9828,-2.9921,-2.9886,-2.9895,-2.9924,-2.997,-2.9973,-2.9927,-2.9871,-2.9913,-2.9894,-2.9838,-2.9938,-2.9883,-2.9894,-2.9961,-3.0063,-3.0074,-3.0084,-3.0197,-3.0223,-3.0244,0,0,0,0,0,0,-2.9947,-2.9917,-2.9879,-2.9969,-2.9973,-2.995,-3.0003,-2.9956,-2.9976,-2.9965,-2.9908,-2.9907,-2.9989,-2.9982,-2.9922,-3.0071,-2.999,-3.0004,-3.0073,-3.0097,-3.0116,-3.0116,-2.9821,0,0,0,0,0,-2.9984,-3.0022,-2.9994,-3.0076,-3.008,-3.0042,-3.006,-3.0024,-3.0026,-3.0028,-3.0013,-3.0018,-3.0051,-3.0073,-3.0102,-3.0205,-3.0201,-3.0256,-3.0275,-3.0292,-3.0304,-3.0359,-3.0383,-3.0125,-3.0125,-3.0125,0,0,-3.0061,-3.0049,-3.0077,-3.01,-3.0099,-3.0141,-3.0044,-3.0092,-3.0123,-3.0035,-3.0102,-3.0093,-3.0095,-3.0183,-3.0221,-3.018,-3.0374,-3.0305,-3.0318,-3.0322,-3.0372,-3.0397,-3.0419,-3.0132,-3.0131,-3.013,0,0,-3.0221,-3.0216,-3.0284,-3.0285,-3.0284,-3.0258,-3.0274,-3.026,-3.025,-3.0316,-3.0251,-3.0288,-3.0345,-3.0349,-3.0359,-3.0523,-3.0472,-3.0534,-3.0636,-3.069,-3.071,-3.0728,-3.0787,-3.0809,-3.0546,-3.0547,-3.0547,0,-3.0316,-3.0376,-3.0325,-3.0378,-3.0391,-3.0312,-3.0382,-3.0385,-3.0394,-3.0406,-3.0359,-3.0429,-3.0425,-3.0514,-3.0554,-3.0564,-3.0582,-3.0535,-3.0711,-3.0729,-3.0745,-3.08,-3.0823,-3.0554,-3.0553,-3.0553,-3.0552,0,-3.0494,-3.0536,-3.0592,-3.0602,-3.0621,-3.0682,-3.0641,-3.0667,-3.063,-3.061,-3.0679,-3.0672,-3.0697,-3.0716,-3.0681,-3.08,-3.0775,-3.0721,-3.0638,-3.0778,-3.0829,-3.085,-3.0565,-3.0562,-3.056,-3.0558,0,0,-3.0729,-3.071,-3.0731,-3.0735,-3.0729,-3.0762,-3.082,-3.0844,-3.0868,-3.0877,-3.0925,-3.0976,-3.0926,-3.0938,-3.0903,-3.095,-3.1082,-3.089,-3.0889,-3.0927,-3.1214,-3.1255,-3.128,-3.1048,-3.1052,-3.1055,-3.1214,0,-3.0885,-3.0981,-3.0938,-3.104,-3.1079,-3.1006,-3.1057,-3.106,-3.1043,-3.1074,-3.1056,-3.1093,-3.1024,-3.103,-3.1074,-3.1057,-3.1139,-3.1044,-3.1093,-3.1096,-3.1095,-3.1307,-3.135,-3.15,-3.1234,-3.1237,-3.124,0,-3.1079,-3.1096,-3.1202,-3.1189,-3.1204,-3.1251,-3.127,-3.1301,-3.1303,-3.1287,-3.1301,-3.1255,-3.1313,-3.1231,-3.131,-3.1247,-3.1265,-3.1259,-3.1264,-3.1267,-3.1176,-3.1316,-3.1547,-3.157,-3.1271,-3.1268,-3.1266,0,-3.124,-3.129,-3.1359,-3.1365,-3.1352,-3.1387,-3.1383,-3.1381,-3.1399,-3.1416,-3.1428,-3.1452,-3.1466,-3.1487,-3.145,-3.1393,-3.1535,-3.1449,-3.1524,-3.1525,-3.1557,-3.1555,-3.1794,-3.1569,-3.1568,-3.1568,-3.1567,0,-3.1419,-3.1486,-3.1432,-3.1475,-3.1549,-3.1499,-3.1574,-3.1563,-3.1562,-3.1603,-3.1542,-3.1581,-3.153,-3.1565,-3.1537,-3.1607,-3.1614,-3.1604,-3.1595,-3.1609,-3.1611,-3.162,-3.1609,-3.1574,-3.1572,-3.1571,-3.157,0,-3.1611,-3.1577,-3.1648,-3.1631,-3.1628,-3.1684,-3.1669,-3.1709,-3.1688,-3.174,-3.1749,-3.1717,-3.1755,-3.172,-3.1757,-3.1738,-3.1833,-3.1809,-3.1832,-3.1825,-3.1902,-3.1896,-3.2155,-3.2187,-3.1941,-3.1943,-3.1945,0,-3.1727,-3.1777,-3.1765,-3.1788,-3.1788,-3.1825,-3.1842,-3.1796,-3.1817,-3.1824,-3.1864,-3.1897,-3.192,-3.1986,-3.1966,-3.1995,-3.1971,-3.2061,-3.1975,-3.1988,-3.1973,-3.1971,-3.1976,-3.2078,-3.2081,-3.2083,-3.2085,0,-3.1937,-3.1918,-3.1945,-3.1968,-3.1991,-3.2006,-3.2017,-3.2039,-3.1991,-3.2019,-3.2057,-3.2075,-3.2113,-3.2147,-3.217,-3.2167,-3.212,-3.2112,-3.2131,-3.2146,-3.2157,-3.2152,-3.1879,-3.2107,-3.2104,-3.2103,-3.2102,-3.2101,-3.2095,-3.2136,-3.2134,-3.2168,-3.2171,-3.2183,-3.2219,-3.2203,-3.2234,-3.226,-3.2231,-3.2278,-3.228,-3.2305,-3.2309,-3.2346,-3.2308,-3.2336,-3.2343,-3.235,-3.2361,-3.2151,-3.235,-3.2349,-3.2348,-3.2348,-3.2347,0,-3.2302,-3.2297,-3.2328,-3.2345,-3.2371,-3.2323,-3.2333,-3.2359,-3.24,-3.2406,-3.2431,-3.2476,-3.2509,-3.2492,-3.2521,-3.2554,-3.2533,-3.2564,-3.2561,-3.2561,-3.2393,-3.2374,-3.258,-3.258,-3.258,-3.258,-3.258,-3.258,-3.2412,-3.248,-3.2462,-3.2532,-3.2526,-3.2571,-3.2581,-3.2592,-3.2597,-3.2649,-3.2676,-3.2664,-3.2662,-3.269,-3.2719,-3.2714,-3.2727,-3.2766,-3.2753,-3.2596,-3.2573,-3.2551,-3.2533,-3.2769,-3.277,-3.2918,-3.2919,-3.2921]},{"header":{"parameterUnit":"m.s-1","parameterCategory":1,"la1":30.2991,"la2":30.254,"lo1":-89.0895,"lo2":-89.0444,"dy":0.0017,"dx":0.0017,"nx":28,"ny":28,"refTime":"2025-08-31T21:00:00:Z","depth":0,"parameterNumber":3,"parameterNumberName":"V-component_of_WINDS"},"data":[0,0,0,0,0,0,0,0,0,0,0,0,0,0,0,0,0,0,0,0,0,0,0,0,0,0,0,0,0,0,0,0,0,0,0,0,0,0,0,0,0,0,0,0,0,0,0,0,0,0,0,0,0,0,0,0,0,0,1.5952,1.5953,0,1.6008,1.6009,1.6009,1.6079,1.608,1.6081,1.6082,1.6136,1.6136,1.6136,0,0,0,0,0,0,0,0,0,0,0,0,0,1.5903,1.5904,1.5952,1.5953,1.5954,1.6008,1.6009,1.601,1.6079,1.608,1.6082,1.6083,1.6135,1.6136,1.6136,0,0,0,0,0,0,0,0,0,0,0,0,0,1.5938,1.5904,1.5952,1.5995,1.5999,1.6008,1.6009,1.601,1.6079,1.608,1.6082,1.6083,1.6135,1.6136,1.6136,1.6106,0,0,1.6138,1.6138,0,0,0,0,0,0,0,0,1.5936,1.594,1.5988,1.5992,1.5997,1.6038,1.6011,1.6042,1.6078,1.6048,1.6082,1.6084,1.6102,1.6105,1.6112,1.6109,1.6111,1.6138,1.6138,1.6139,1.6139,0,0,0,0,0,0,0,1.5934,1.5938,1.5974,1.5989,1.5994,1.6011,1.6017,1.6017,1.6065,1.6051,1.6056,1.6062,1.6104,1.6111,1.6113,1.6112,1.6138,1.6139,1.6139,1.6139,1.6088,1.6086,0,0,0,0,0,0,1.5925,1.5935,1.5973,1.5976,1.597,1.601,1.6018,1.6023,1.6065,1.6073,1.6061,1.6065,1.6109,1.6113,1.6116,1.6083,1.6139,1.6139,1.614,1.6089,1.6087,1.6085,0,0,0,0,0,0,1.5924,1.5928,1.597,1.5957,1.5964,1.6009,1.6015,1.6024,1.603,1.6072,1.6081,1.6059,1.6111,1.6115,1.6109,1.6086,1.6139,1.614,1.6091,1.6089,1.6086,1.6017,0,0,0,0,0,0,1.5922,1.5927,1.5916,1.5957,1.5964,1.5963,1.6014,1.6023,1.6032,1.6038,1.6073,1.608,1.6112,1.6107,1.6109,1.6088,1.614,1.6094,1.609,1.6087,1.6022,1.6013,1.6005,0,0,0,0,0,1.592,1.5894,1.5916,1.592,1.5952,1.5961,1.5966,1.6004,1.6029,1.6019,1.6046,1.6079,1.6089,1.6106,1.6109,1.6087,1.6095,1.6091,1.6087,1.6026,1.6015,1.6005,0,0,0,0,0,0,1.5848,1.59,1.5924,1.591,1.5931,1.5973,1.5961,1.5991,1.6004,1.6009,1.6056,1.6063,1.6051,1.6069,1.6087,1.606,1.6097,1.6093,1.6049,1.6039,1.603,1.6025,1.6141,0,0,0,0,0,1.5831,1.5835,1.588,1.5863,1.5872,1.5915,1.592,1.5948,1.5971,1.598,1.6006,1.6026,1.6034,1.6038,1.6047,1.6026,1.6034,1.6012,1.6004,1.5997,1.5992,1.5982,1.5973,1.6073,1.6073,1.6073,0,0,1.5794,1.5823,1.5823,1.5849,1.5869,1.5871,1.5921,1.5921,1.5923,1.5979,1.5975,1.5996,1.6021,1.6007,1.6002,1.6021,1.5967,1.5992,1.5986,1.5985,1.5977,1.5968,1.5959,1.607,1.6071,1.6071,0,0,1.5729,1.5752,1.5741,1.576,1.5789,1.5818,1.5815,1.5853,1.5869,1.5866,1.5909,1.5911,1.5923,1.594,1.595,1.5893,1.5923,1.5895,1.585,1.5839,1.5831,1.5825,1.5803,1.5795,1.5891,1.5891,1.589,0,1.568,1.5686,1.5731,1.5729,1.5739,1.5792,1.578,1.5796,1.5826,1.5832,1.5854,1.5871,1.5891,1.5882,1.5868,1.5875,1.5872,1.589,1.5829,1.5823,1.5817,1.5797,1.5789,1.5887,1.5887,1.5888,1.5888,0,1.5624,1.5627,1.5615,1.5644,1.5653,1.5646,1.5689,1.5693,1.5721,1.5747,1.5743,1.5771,1.5787,1.5787,1.5814,1.5781,1.5792,1.5821,1.5858,1.5803,1.5785,1.5778,1.5881,1.5883,1.5884,1.5885,0,0,1.5512,1.5568,1.5562,1.5577,1.5614,1.5617,1.5613,1.563,1.5632,1.5652,1.5649,1.5659,1.5686,1.5697,1.5727,1.5718,1.567,1.5748,1.5749,1.5731,1.5636,1.5612,1.5603,1.5692,1.5691,1.569,1.5633,0,1.5452,1.5449,1.549,1.5475,1.5478,1.553,1.5526,1.5548,1.5573,1.5579,1.5607,1.5613,1.5649,1.5656,1.565,1.5677,1.5651,1.5682,1.5688,1.5687,1.5678,1.5594,1.5569,1.5514,1.5626,1.5625,1.5625,0,1.5382,1.5399,1.5385,1.5424,1.5427,1.5423,1.5443,1.5448,1.5474,1.5493,1.5507,1.5541,1.5539,1.5576,1.5573,1.5593,1.5598,1.5612,1.5611,1.5611,1.5651,1.559,1.5498,1.5489,1.5614,1.5615,1.5616,0,1.53,1.5321,1.5315,1.5326,1.5371,1.5367,1.5386,1.5414,1.5422,1.5439,1.5444,1.546,1.5468,1.5479,1.5517,1.5541,1.5509,1.555,1.5524,1.5522,1.5513,1.5512,1.5418,1.5519,1.5519,1.5519,1.5519,0,1.5229,1.5217,1.5279,1.5275,1.5264,1.5312,1.5299,1.5323,1.5348,1.5349,1.5395,1.5394,1.5445,1.545,1.548,1.5472,1.5476,1.549,1.5498,1.5485,1.5483,1.5487,1.5491,1.5517,1.5517,1.5518,1.5518,0,1.5135,1.5176,1.5173,1.5217,1.5228,1.5218,1.5255,1.5253,1.5282,1.5283,1.5286,1.533,1.5339,1.5379,1.5396,1.5416,1.5398,1.5414,1.5389,1.5394,1.5365,1.5367,1.5269,1.5258,1.5367,1.5366,1.5365,0,1.5085,1.5078,1.5123,1.5127,1.5145,1.5151,1.5161,1.5207,1.5215,1.5245,1.5239,1.5252,1.5264,1.5276,1.5309,1.5322,1.5338,1.5303,1.5341,1.5328,1.5336,1.5336,1.5335,1.5294,1.5293,1.5292,1.5291,0,1.4993,1.5014,1.5026,1.5045,1.5055,1.5072,1.5091,1.5092,1.5144,1.515,1.5161,1.517,1.519,1.5201,1.5221,1.5239,1.5273,1.5279,1.5274,1.526,1.5245,1.5251,1.5365,1.5281,1.5282,1.5283,1.5283,1.5283,1.4919,1.4915,1.4946,1.4958,1.4978,1.4996,1.4996,1.5026,1.5036,1.5056,1.5083,1.509,1.5117,1.5147,1.5163,1.5169,1.5188,1.518,1.5178,1.5174,1.5168,1.5246,1.5172,1.5173,1.5173,1.5173,1.5174,0,1.4828,1.4851,1.4862,1.4889,1.4898,1.4932,1.4955,1.496,1.4966,1.4989,1.5002,1.5013,1.5026,1.5061,1.5076,1.5073,1.5089,1.5076,1.5075,1.5079,1.515,1.5153,1.5063,1.5063,1.5063,1.5063,1.5063,1.5063,1.4781,1.4777,1.4802,1.4808,1.4831,1.4839,1.485,1.4866,1.4885,1.4897,1.4907,1.4931,1.4959,1.4977,1.4989,1.5,1.5002,1.4983,1.4998,1.5063,1.5074,1.5084,1.5087,1.4984,1.4984,1.4926,1.4925,1.4925]}]]